Voltar ao catálogo

STARLING 1

AtivoCiênciaPO
NORAD 57388·PAYLOAD·🇺🇸 United States

Lançado Jul 18, 2023 de Rocket Lab Launch Complex 1

Loading…

Próximas Passagens (próximas 24 horas)

TLE

AtualizadoSource: Space-Track

Época: Sep 14, 2026, 15:01 UTC

1 57388U 23100C   26257.62615909  .00001080  00000-0  78155-4 0  9996
2 57388  99.5093 296.8978 0005081   1.7445 358.3794 15.07026559173372

Acompanhe STARLING 1 em tempo real com AllMySat

Download on the App Store